Flag for U.S.A. Weather past 2 weeks in Panama City, Florida, U.S.A.

Now
61 °F

Overcast.


Feels Like: 61 °F
Forecast: 55 / 65 °F
Wind: 10 mph from North

Location: Tyndall Air Force Base


UV Index: 0 (Low)

Visibility: 10 mi


Pressure: 30.01 "Hg

Humidity: 77%

Dew point: 54 °F

Location of Panama CityLocation

Historic Weather in Panama City

°F

Panama City temperature yesterday

Maximum temperature yesterday: 64 °F (at 3:03 PM)
Minimum temperature yesterday: 56 °F (at 9:58 PM)
Average temperature yesterday: 61 °F

Past Weeks' High & Low Weather Summary

 TemperatureHumidityPressure
High78 °F (Apr 12, 11:58 AM)100% (Apr 5, 2:03 AM)30.31 "Hg (Apr 5, 2:03 AM)
Low41 °F (Apr 16, 5:58 AM)59% (Apr 10, 10:58 AM)29.72 "Hg (Apr 15, 3:02 AM)
Average65 °F90%30.04 "Hg
* Reported Apr 4 12:58 PM — Apr 19 12:03 PM, Panama City, Weather by CustomWeather, © 2014

Note: Actual official high and low records may vary slightly from our data, if they occured in-between our weather recording intervals... More about our weather records

Advertising

Historic Weather Conditions — Data for Previous 24 hours

 ConditionsComfort  
Time TempWeatherWind HumidityBarometerVisibility
12:03 PM
Apr 19
61 °FOvercast.10 mph77%30.01 "Hg10 mi
11:58 AM59 °FOvercast.13 mph82%30.02 "Hg10 mi
10:58 AM59 °FOvercast.10 mph80%30.04 "Hg10 mi
9:58 AM59 °FOvercast.15 mph77%30.03 "Hg10 mi
8:58 AM57 °FLow clouds.10 mph85%30.03 "Hg10 mi
7:58 AM55 °FMostly cloudy.8 mph88%30.02 "Hg10 mi
6:58 AM55 °FMostly cloudy.9 mph88%30.00 "Hg10 mi
5:58 AM56 °FLow clouds.9 mph86%29.98 "Hg10 mi
4:58 AM56 °FOvercast.10 mph83%29.97 "Hg10 mi
3:58 AM56 °FOvercast.10 mph84%29.97 "Hg10 mi
2:58 AM55 °FMostly cloudy.8 mph86%29.97 "Hg10 mi
1:58 AM56 °FOvercast.9 mph85%29.98 "Hg10 mi
12:58 AM56 °FOvercast.12 mph84%29.97 "Hg10 mi
11:58 PM
Apr 18
56 °FLow clouds.10 mph85%29.98 "Hg10 mi
10:58 PM56 °FLow clouds.13 mph87%29.97 "Hg10 mi
9:58 PM56 °FLow clouds.13 mph91%29.96 "Hg10 mi
8:59 PM57 °FLight rain. Fog.12 mph88%29.95 "Hg6 mi
8:58 PM57 °FFog.12 mph89%29.96 "Hg6 mi
7:58 PM58 °FDrizzle. Mostly cloudy.13 mph84%29.94 "Hg7 mi
6:58 PM58 °FMostly cloudy.13 mph84%29.93 "Hg10 mi
5:58 PM58 °FOvercast.13 mph85%29.93 "Hg10 mi
4:58 PM58 °FMostly cloudy.15 mph90%29.92 "Hg10 mi
4:03 PM59 °FLow clouds.21 mph88%29.93 "Hg10 mi
3:58 PM59 °FMostly cloudy.20 mph92%29.94 "Hg10 mi
3:03 PM64 °FLight rain. Fog.14 mph94%29.92 "Hg2 mi
2:58 PM64 °FRain. Fog.13 mph95%29.93 "Hg1 mi
1:58 PM64 °FLow clouds.13 mph98%29.94 "Hg10 mi
Weather by CustomWeather, © 2014

See weather overview